Total_Precipitation_Accumulation
0.00 0.01 0.08 0.17 0.24 0.26 0.26 0.37 0.06 0.01 0.01 0.00 0.00 0.00 0.00 0.01 0.03 0.24 0.17 0.21 0.34 0.47 0.45 0.58 0.62 0.76 0.66 0.70 0.56 0.42 0.30 0.37 0.32 0.31 0.42 0.48 0.53 0.59 0.66 0.71 0.75 0.96 1.02 0.77 0.58 0.50 0.43 0.48 0.55
0.00 0.00 0.02 0.14 0.19 0.12 0.06 0.02 0.00 0.01 0.00 0.00 0.00 0.00 0.00 0.01 0.02 0.03 0.07 0.16 0.17 0.27 0.30 0.44 0.56 0.64 0.42 0.56 0.53 0.44 0.36 0.48 0.45 0.45 0.38 0.36 0.40 0.51 0.52 0.80 1.05 1.15 1.24 0.63 0.57 0.48 0.46 0.46 0.53
0.00 0.00 0.06 0.12 0.07 0.10 0.01 0.01 0.01 0.00 0.00 0.00 0.00 0.00 0.00 0.02 0.03 0.05 0.06 0.20 0.25 0.31 0.44 0.53 0.57 0.72 0.62 0.55 0.57 0.56 0.44 0.44 0.34 0.34 0.47 0.50 0.46 0.49 0.46 0.66 1.03 1.06 0.84 0.60 0.57 0.56 0.55 0.58 0.50
0.00 0.00 0.01 0.05 0.04 0.04 0.03 0.00 0.01 0.00 0.00 0.00 0.00 0.00 0.01 0.03 0.05 0.04 0.09 0.23 0.37 0.40 0.44 0.51 0.67 0.72 0.73 0.56 0.52 0.46 0.41 0.42 0.32 0.26 0.31 0.48 0.63 0.70 0.84 0.73 0.94 0.92 0.63 0.56 0.56 0.57 0.63 0.60 0.53
0.00 0.03 0.07 0.04 0.03 0.00 0.01 0.03 0.02 0.02 0.02 0.02 0.00 0.01 0.04 0.11 0.11 0.06 0.09 0.18 0.36 0.40 0.39 0.39 0.65 0.63 0.81 0.62 0.52 0.42 0.38 0.41 0.36 0.37 0.58 1.18 1.40 1.06 1.04 0.84 0.97 1.09 0.68 0.56 0.54 0.51 0.62 0.62 0.66
0.00 0.00 0.02 0.06 0.12 0.02 0.00 0.03 0.17 0.27 0.08 0.04 0.02 0.02 0.13 0.20 0.19 0.12 0.12 0.19 0.24 0.27 0.26 0.55 0.87 1.02 1.12 0.94 0.69 0.64 0.61 0.44 0.41 0.51 1.04 1.14 1.02 0.78 0.83 0.85 0.81 0.89 0.69 0.59 0.51 0.57 0.64 0.58 0.60
0.00 0.00 0.00 0.04 0.04 0.01 0.02 0.04 0.08 0.18 0.27 0.20 0.16 0.14 0.22 0.29 0.31 0.21 0.16 0.21 0.22 0.42 0.57 0.93 1.32 1.55 1.83 2.11 1.87 1.26 1.23 1.10 0.63 0.53 0.45 0.55 0.76 0.78 0.91 0.76 0.65 0.77 0.65 0.62 0.61 0.65 0.63 0.55 0.45
0.00 0.00 0.00 0.01 0.04 0.01 0.00 0.04 0.16 0.18 0.27 0.29 0.11 0.14 0.45 0.68 0.60 0.55 0.41 0.43 0.60 0.68 0.77 0.96 1.05 1.05 1.37 1.93 2.67 2.72 2.09 1.87 1.33 0.76 0.60 0.64 0.77 0.86 0.78 0.82 0.68 0.80 0.71 0.62 0.56 0.81 0.65 0.45 0.43
0.00 0.00 0.00 0.00 0.01 0.00 0.01 0.08 0.12 0.28 0.17 0.23 0.18 0.07 0.16 0.65 1.07 0.98 0.80 0.53 0.91 1.23 1.22 0.94 1.01 1.33 1.66 1.74 2.34 2.52 2.50 2.02 1.98 1.20 0.78 0.60 0.34 0.27 0.40 0.48 0.86 0.90 0.98 0.83 0.78 0.87 0.66 0.52 0.49
0.00 0.00 0.01 0.00 0.01 0.00 0.01 0.03 0.05 0.17 0.10 0.13 0.20 0.04 0.07 0.09 0.08 0.21 0.74 1.04 1.13 1.28 1.47 1.57 1.53 1.48 1.73 1.83 2.36 2.59 2.64 2.51 2.23 1.80 0.83 0.54 0.22 0.21 0.31 0.60 1.15 1.33 1.38 1.31 1.13 0.89 0.74 0.62 0.46
0.00 0.00 0.02 0.01 0.01 0.01 0.01 0.02 0.03 0.11 0.18 0.22 0.18 0.05 0.11 0.15 0.04 0.04 0.13 0.73 1.16 1.47 2.13 1.83 1.97 1.92 1.64 1.99 2.32 3.13 3.53 3.68 2.71 2.71 2.25 1.60 0.98 0.44 0.49 0.76 0.85 1.25 1.42 1.34 1.16 0.82 0.55 0.42 0.40
0.01 0.01 0.02 0.01 0.02 0.01 0.01 0.01 0.02 0.15 0.30 0.24 0.32 0.11 0.10 0.07 0.09 0.09 0.16 0.20 0.23 0.68 1.45 2.45 2.35 1.55 1.45 1.59 1.60 1.88 2.34 3.24 3.40 3.86 3.22 2.88 2.40 1.48 1.33 1.35 1.39 1.54 1.55 1.47 1.13 0.83 0.47 0.30 0.37
0.02 0.04 0.04 0.01 0.02 0.03 0.00 0.00 0.00 0.03 0.10 0.14 0.25 0.17 0.25 0.23 0.28 0.22 0.21 0.29 0.36 0.26 0.86 1.71 2.46 2.37 1.52 1.20 1.65 1.63 1.48 1.95 2.07 2.60 2.72 2.72 3.31 2.73 1.72 1.66 1.66 1.69 1.88 1.89 1.93 1.54 1.17 0.49 0.27
0.01 0.02 0.02 0.01 0.02 0.03 0.01 0.00 0.00 0.00 0.04 0.07 0.17 0.16 0.12 0.09 0.11 0.25 0.25 0.16 0.14 0.31 0.63 0.73 0.91 2.69 1.98 1.59 1.92 2.13 1.63 1.53 1.45 1.32 1.10 0.96 1.46 1.65 0.99 1.23 1.60 1.28 1.85 1.92 1.67 1.53 1.32 0.88 0.45
0.02 0.02 0.02 0.02 0.02 0.05 0.05 0.01 0.00 0.00 0.00 0.03 0.07 0.11 0.09 0.15 0.12 0.04 0.13 0.10 0.07 0.19 0.53 1.06 1.27 1.85 2.98 2.60 2.40 3.03 2.43 2.07 1.43 1.30 1.10 0.72 0.69 0.81 0.86 0.94 2.01 1.94 1.83 1.82 1.60 1.25 1.18 1.00 0.71
0.04 0.03 0.03 0.02 0.01 0.02 0.06 0.03 0.02 0.01 0.01 0.02 0.04 0.05 0.08 0.12 0.06 0.11 0.25 0.16 0.20 0.20 0.37 0.60 0.92 0.93 1.68 1.75 1.97 2.66 2.33 3.35 2.01 1.07 0.90 0.96 0.95 1.10 1.06 1.10 1.29 2.08 2.69 2.24 1.79 1.75 1.69 1.54 0.95
0.02 0.03 0.05 0.02 0.01 0.03 0.06 0.04 0.02 0.03 0.03 0.05 0.07 0.05 0.05 0.11 0.12 0.23 0.31 0.36 0.38 0.38 0.46 0.64 0.55 0.66 0.98 1.21 1.46 1.91 1.87 1.95 1.90 1.58 1.19 1.23 1.07 0.94 0.95 0.88 0.96 1.05 1.64 2.33 2.34 2.30 1.80 1.35 1.01
0.02 0.03 0.04 0.03 0.03 0.04 0.05 0.09 0.10 0.08 0.05 0.06 0.07 0.08 0.04 0.03 0.00 0.21 0.38 0.56 0.62 0.90 0.91 0.96 0.91 0.95 1.34 1.47 1.09 1.22 1.43 1.70 1.84 2.04 1.59 1.27 1.22 1.07 1.05 0.84 0.94 1.14 1.02 1.14 1.70 1.96 2.31 2.09 1.68
0.02 0.03 0.03 0.04 0.02 0.05 0.08 0.08 0.10 0.10 0.06 0.02 0.02 0.03 0.03 0.00 0.00 0.18 0.30 0.47 0.66 0.90 1.56 1.62 1.68 1.49 1.55 1.20 0.78 0.82 0.90 1.44 1.47 1.71 1.52 1.28 1.40 1.55 1.24 0.95 0.93 0.93 0.91 1.00 1.33 1.66 1.91 2.58 2.33
0.02 0.03 0.06 0.06 0.01 0.02 0.03 0.05 0.05 0.02 0.03 0.03 0.02 0.02 0.04 0.03 0.01 0.06 0.20 0.29 0.41 0.40 1.07 1.76 2.02 2.29 2.38 2.18 1.62 1.65 1.55 1.58 1.45 1.37 1.05 0.90 1.42 1.54 1.25 1.16 1.07 0.95 0.95 0.98 1.03 1.14 1.28 1.65 1.72
0.03 0.05 0.06 0.06 0.07 0.03 0.01 0.00 0.00 0.00 0.00 0.00 0.01 0.01 0.04 0.11 0.12 0.15 0.24 0.25 0.36 0.31 0.61 1.21 2.20 1.95 1.56 1.69 1.91 2.34 2.36 2.43 2.11 1.94 1.75 1.71 1.92 2.33 2.48 2.09 1.38 1.14 1.03 0.99 1.09 1.04 1.08 1.23 1.37
0.10 0.07 0.13 0.13 0.23 0.14 0.02 0.03 0.00 0.00 0.00 0.00 0.01 0.01 0.05 0.08 0.15 0.10 0.33 0.43 0.42 0.49 0.90 1.27 1.95 1.91 1.57 1.59 1.40 1.61 2.20 3.20 2.96 2.60 2.57 2.87 2.23 1.97 1.67 1.10 0.78 0.72 0.65 0.72 0.93 1.10 1.21 1.51 1.57
0.11 0.13 0.21 0.26 0.25 0.22 0.14 0.11 0.00 0.00 0.01 0.01 0.00 0.01 0.02 0.06 0.11 0.08 0.11 0.31 0.59 0.76 0.76 1.08 2.25 3.13 3.56 3.20 2.58 2.02 2.21 2.55 3.33 4.17 4.30 3.91 3.84 2.67 1.66 0.92 0.53 0.57 0.71 0.74 0.85 0.98 1.07 1.14 1.41
0.24 0.22 0.41 0.37 0.32 0.19 0.27 0.18 0.06 0.10 0.32 0.14 0.05 0.03 0.04 0.06 0.09 0.18 0.34 0.42 0.57 0.60 0.60 1.07 1.65 2.53 3.50 4.38 5.06 4.67 3.89 4.08 4.53 4.66 4.63 4.66 4.33 3.94 3.06 1.67 1.22 0.91 0.78 0.76 0.82 0.96 1.18 1.23 1.34
0.24 0.40 0.84 0.72 0.52 0.22 0.31 0.31 0.27 0.22 0.57 0.42 0.27 0.17 0.21 0.16 0.20 0.42 0.78 0.62 0.64 0.54 0.55 0.84 1.38 1.52 2.27 2.80 3.63 4.48 4.97 6.34 6.15 4.28 4.00 3.79 3.88 4.33 4.45 3.60 2.15 1.74 1.36 1.02 0.77 0.85 1.08 1.11 1.11
0.16 0.36 1.04 1.24 0.61 0.73 0.76 0.73 0.59 0.34 0.27 0.47 0.52 0.45 0.42 0.43 0.43 0.94 1.59 1.27 1.07 0.72 1.02 1.22 1.50 1.45 1.46 1.97 3.22 4.26 5.20 4.68 3.88 3.37 3.18 3.05 2.41 2.57 2.86 3.27 3.06 1.94 1.76 1.97 1.43 1.06 1.03 0.98 1.03
0.14 0.23 0.50 0.89 0.74 0.82 0.74 0.59 0.45 0.41 0.08 0.39 0.53 0.71 0.60 0.57 0.70 0.97 0.99 0.95 0.85 0.75 1.11 1.09 1.44 1.42 1.53 2.28 3.12 3.13 2.44 1.89 1.74 2.51 3.67 3.91 3.27 2.84 2.86 2.64 2.70 2.35 1.84 1.59 1.53 1.33 1.12 1.06 1.00
0.06 0.10 0.28 0.91 1.24 0.65 0.16 0.05 0.13 0.44 0.34 0.41 0.33 0.51 0.82 0.73 0.82 0.94 0.95 1.02 1.05 1.07 1.20 1.18 1.17 1.11 1.56 2.48 2.13 1.48 1.05 1.05 1.27 1.80 1.90 2.33 3.28 3.51 3.73 3.96 3.50 2.54 2.09 1.69 1.36 1.06 1.02 1.20 1.08
0.03 0.06 0.14 0.41 0.54 0.68 0.37 0.09 0.07 0.20 0.30 0.18 0.19 0.40 0.65 0.68 0.62 0.60 0.64 0.82 0.76 0.69 0.73 0.76 0.73 0.75 0.82 1.06 1.26 1.01 0.94 0.91 0.98 1.30 1.61 1.60 1.72 1.88 1.95 2.47 2.58 2.19 1.82 1.58 1.40 1.33 1.10 1.04 1.20
0.06 0.13 0.30 0.95 0.92 0.71 0.69 0.40 0.09 0.09 0.12 0.16 0.16 0.12 0.20 0.41 0.46 0.44 0.49 0.40 0.46 0.52 0.71 0.44 0.41 0.48 0.49 0.59 0.81 0.69 0.88 0.74 0.72 0.71 1.06 1.09 1.17 1.19 1.18 1.25 1.46 1.72 1.48 1.40 1.23 1.21 1.19 1.05 1.29